Evanston, WY

2:03 AM MST on January 23, 2018 (GMT -0700)
Evanston-Uinta County Burns

Weather History for KEVW - October, 2013

Change the Weather History Date:

Thursday, October 10, 2013

  Actual Average Record
Temperature  
Mean Temperature 43 °F 46 °F  
Max Temperature 50 °F 59 °F 75 °F (1999)
Min Temperature 36 °F 34 °F 21 °F (2001)
Degree Days  
Heating Degree Days 22 19  
Month to date heating degree days 195 170  
Since 1 July heating degree days 474 567  
Cooling Degree Days 0 0  
Month to date cooling degree days 0 0  
Year to date cooling degree days 348 162  
Moisture  
Dew Point 31 °F    
Average Humidity 61    
Maximum Humidity 76    
Minimum Humidity 46    
Precipitation  
Precipitation T in 0.04 in 0.31 in (2000)
Month to date precipitation 0.12 0.31  
Year to date precipitation 4.18 9.65  
Sea Level Pressure  
Sea Level Pressure 29.71 in    
Wind  
Wind Speed 8 mph (WSW)    
Max Wind Speed 22 mph    
Max Gust Speed 30 mph    
Visibility 9 miles    
Events Rain , Snow    
T = Trace of Precipitation, MM = Missing Value Source: NWS Daily Summary

Daily Weather History Graph

Daily Weather History Graph

Search for Another Location

Airport or City:

Trip Planner

Search our weather history database for the weather conditions in past years. The results will help you decide how hot, cold, wet, or windy it might be!

Date:

Astronomy

Oct. 10, 2013 Rise Set
Actual Time 7:30 AM MDT 6:50 PM MDT
Civil Twilight 7:03 AM MDT 7:18 PM MDT
Nautical Twilight 6:31 AM MDT 7:50 PM MDT
Astronomical Twilight 5:59 AM MDT 8:22 PM MDT
Moon 1:27 PM MDT (10/10) 11:30 PM MDT (10/10)
Length of Visible Light 12h 15m
Length of Day
11h 19m
Waxing Crescent, 36% of the Moon is Illuminated
Oct 10
Waxing Crescent
Oct 11
First Quarter
Oct 18
Full
Oct 26
Last Quarter
Nov 3
New

Hourly Weather History & Observations

Time (MDT) Temp. Windchill Dew Point Humidity Pressure Visibility Wind Dir Wind Speed Gust Speed Precip Events Conditions
12:53 AM 42.1 °F 37.1 °F 30.9 °F 65% 29.64 in 10.0 mi NNE 8.1 mph - 0.00 in   Partly Cloudy
1:53 AM 41.0 °F 36.4 °F 30.9 °F 67% 29.62 in 10.0 mi NNE 6.9 mph - N/A   Clear
2:53 AM 39.0 °F 35.7 °F 30.9 °F 73% 29.64 in 10.0 mi South 4.6 mph - N/A   Scattered Clouds
3:53 AM 39.9 °F 37.8 °F 30.9 °F 70% 29.61 in 10.0 mi ENE 3.5 mph - N/A   Clear
4:53 AM 37.0 °F 32.4 °F 30.9 °F 79% 29.65 in 10.0 mi SW 5.8 mph - N/A   Scattered Clouds
5:53 AM 39.9 °F 31.1 °F 30.9 °F 70% 29.62 in 10.0 mi South 17.3 mph 26.5 mph N/A   Clear
6:53 AM 39.0 °F 33.4 °F 30.0 °F 70% 29.62 in 10.0 mi ESE 8.1 mph - N/A   Overcast
7:53 AM 39.9 °F 33.4 °F 30.9 °F 70% 29.61 in 10.0 mi SE 10.4 mph - N/A   Mostly Cloudy
8:53 AM 41.0 °F 34.7 °F 32.0 °F 70% 29.63 in 10.0 mi East 10.4 mph - N/A   Overcast
9:53 AM 42.1 °F 35.7 °F 30.0 °F 62% 29.61 in 10.0 mi ENE 11.5 mph - N/A   Mostly Cloudy
10:53 AM 44.1 °F 39.0 °F 30.0 °F 58% 29.61 in 10.0 mi ENE 9.2 mph - N/A   Clear
11:53 AM 44.1 °F - 30.0 °F 58% 29.62 in 10.0 mi Calm Calm - N/A   Scattered Clouds
12:13 PM 44.6 °F 41.4 °F 28.4 °F 53% 29.74 in 10.0 mi ENE 5.8 mph - N/A   Mostly Cloudy
12:25 PM 46.4 °F - 26.6 °F 46% 29.74 in 10.0 mi Calm Calm - N/A   Partly Cloudy
12:53 PM 46.0 °F 44.8 °F 28.0 °F 50% 29.61 in 10.0 mi ENE 3.5 mph - N/A   Mostly Cloudy
1:06 PM 46.4 °F - 28.4 °F 50% 29.74 in 10.0 mi Calm Calm - N/A   Overcast
1:53 PM 48.0 °F - 30.0 °F 50% 29.57 in 10.0 mi Variable 6.9 mph - N/A   Overcast
2:53 PM 48.9 °F - 28.9 °F 46% 29.57 in 10.0 mi Calm Calm - N/A   Overcast
3:53 PM 43.0 °F 34.0 °F 30.9 °F 62% 29.62 in 10.0 mi SW 21.9 mph 26.5 mph N/A   Overcast
4:18 PM 41.0 °F 31.1 °F 30.2 °F 65% 29.74 in 10.0 mi WSW 23.0 mph - N/A   Overcast
4:29 PM 41.0 °F 31.4 °F 30.2 °F 65% 29.74 in 10.0 mi WSW 21.9 mph - N/A   Overcast
4:50 PM 41.0 °F 31.9 °F 30.2 °F 65% 29.75 in 10.0 mi WSW 19.6 mph - N/A   Overcast
4:53 PM 41.0 °F 32.2 °F 30.9 °F 67% 29.66 in 10.0 mi WSW 18.4 mph - N/A   Overcast
5:53 PM 39.0 °F 31.4 °F 32.0 °F 76% 29.68 in 10.0 mi WSW 12.7 mph - 0.00 in Rain Light Rain
6:01 PM 39.2 °F 32.0 °F 32.0 °F 75% 29.78 in 10.0 mi West 11.5 mph - 0.00 in Rain Light Rain
6:41 PM 37.4 °F 28.9 °F 30.2 °F 75% 29.80 in 9.0 mi West 13.8 mph - 0.01 in Rain Light Rain
6:53 PM 37.9 °F 28.9 °F 32.0 °F 79% 29.72 in 10.0 mi West 16.1 mph - 0.01 in Rain Light Rain
7:28 PM 37.4 °F 29.3 °F 32.0 °F 81% 29.81 in 9.0 mi WSW 12.7 mph - 0.02 in Rain Light Rain
7:53 PM 37.0 °F 27.7 °F 30.9 °F 79% 29.73 in 8.0 mi West 16.1 mph - 0.04 in Rain Light Rain
8:11 PM 35.6 °F 26.2 °F 32.0 °F 87% 29.82 in 10.0 mi WSW 15.0 mph - 0.00 in Rain Light Rain
8:19 PM 35.6 °F 25.5 °F 32.0 °F 87% 29.82 in 8.0 mi WSW 17.3 mph - 0.00 in Rain Light Rain
8:26 PM 35.6 °F 25.5 °F 32.0 °F 87% 29.82 in 8.0 mi WSW 17.3 mph - 0.00 in Rain Light Rain
8:43 PM 35.6 °F 26.6 °F 32.0 °F 87% 29.83 in 9.0 mi WSW 13.8 mph - 0.01 in Rain Light Rain
8:53 PM 36.0 °F 26.0 °F 30.9 °F 82% 29.75 in 8.0 mi WSW 17.3 mph - 0.01 in Rain Light Rain
9:53 PM 35.1 °F 24.8 °F 32.0 °F 89% 29.76 in 4.0 mi SW 17.3 mph - 0.02 in Rain Light Rain
10:53 PM 34.0 °F 24.6 °F 32.0 °F 92% 29.78 in 3.0 mi WSW 13.8 mph - 0.04 in Snow Light Snow
11:30 PM 35.6 °F 26.2 °F 32.0 °F 87% 29.87 in 8.0 mi West 15.0 mph - 0.02 in Rain Light Rain
11:40 PM 35.6 °F 25.2 °F 32.0 °F 87% 29.88 in 10.0 mi West 18.4 mph 25.3 mph 0.02 in Rain Light Rain
11:53 PM 36.0 °F 27.1 °F 30.9 °F 82% 29.79 in 3.0 mi West 13.8 mph 26.5 mph 0.02 in Snow Light Snow